Terug naar catalogus

STARLINK-5366

ActiefCommunicatieVLEO
NORAD 55499·PAYLOAD·🇺🇸 United States

Gelanceerd Feb 2, 2023 vanaf Cape Canaveral Space Force Station

Loading…

Volgende Passages (komende 24 uur)

TLE

VersSource: CelesTrak SupGP

Epoch: Sep 15, 2026, 01:41 UTC

1 55499C 23015BC  26258.07062500  .00003024  00000+0  10955-3 0  2585
2 55499  43.0011 349.8749 0001422 265.5194  49.1790 15.27573353    10

Volg STARLINK-5366 in realtime met AllMySat

Download on the App Store